| time (UTC) | temp F | wind direction | speed MPH | gust MPH | rain 1hr in | rain 24hr in | rain mn in | humidity % | barometer mb |
| 20260503001406 | 65 | 329 | 0.0 | 9.0 | 0.00 | 0.00 | 0.00 | 38 | 1017.4 |
| 20260503000906 | 65 | 335 | 2.0 | 9.0 | 0.00 | 0.00 | 0.00 | 38 | 1017.3 |
| 20260503000407 | 66 | 309 | 3.0 | 7.0 | 0.00 | 0.00 | 0.00 | 38 | 1017.3 |
| 20260502235904 | 66 | 32 | 3.0 | 9.0 | 0.00 | 0.00 | 0.00 | 38 | 1017.3 |
| 20260502235404 | 66 | 310 | 2.0 | 9.0 | 0.00 | 0.00 | 0.00 | 39 | 1017.1 |
| 20260502234904 | 66 | 34 | 3.0 | 6.0 | 0.00 | 0.00 | 0.00 | 38 | 1017.1 |
| 20260502234403 | 67 | 322 | 0.0 | 5.0 | 0.00 | 0.00 | 0.00 | 39 | 1017.0 |
| 20260502233903 | 67 | 54 | 1.0 | 6.0 | 0.00 | 0.00 | 0.00 | 38 | 1017.0 |
| 20260502233403 | 67 | 341 | 3.0 | 10.0 | 0.00 | 0.00 | 0.00 | 38 | 1017.0 |
| 20260502232402 | 68 | 300 | 2.0 | 7.0 | 0.00 | 0.00 | 0.00 | 38 | 1016.9 |
| 20260502231901 | 68 | 11 | 4.0 | 8.0 | 0.00 | 0.00 | 0.00 | 37 | 1016.9 |
| 20260502231401 | 68 | 23 | 1.0 | 8.0 | 0.00 | 0.00 | 0.00 | 36 | 1016.9 |
| 20260502230900 | 68 | 303 | 3.0 | 6.0 | 0.00 | 0.00 | 0.00 | 36 | 1016.9 |
| 20260502225900 | 68 | 28 | 5.0 | 9.0 | 0.00 | 0.00 | 0.00 | 37 | 1016.9 |
| 20260502225400 | 68 | 360 | 2.0 | 12.0 | 0.00 | 0.00 | 0.00 | 36 | 1016.9 |
| 20260502224859 | 69 | 325 | 0.0 | 13.0 | 0.00 | 0.00 | 0.00 | 35 | 1016.9 |
| 20260502224358 | 69 | 325 | 4.0 | 13.0 | 0.00 | 0.00 | 0.00 | 36 | 1016.9 |
| 20260502223858 | 70 | 340 | 1.0 | 8.0 | 0.00 | 0.00 | 0.00 | 36 | 1016.8 |
| 20260502223357 | 70 | 331 | 6.0 | 8.0 | 0.00 | 0.00 | 0.00 | 35 | 1016.7 |
| 20260502222857 | 71 | 348 | 4.0 | 10.0 | 0.00 | 0.00 | 0.00 | 36 | 1016.7 |
| 20260502222356 | 71 | 292 | 7.0 | 10.0 | 0.00 | 0.00 | 0.00 | 36 | 1016.7 |
| 20260502221855 | 70 | 281 | 4.0 | 8.0 | 0.00 | 0.00 | 0.00 | 36 | 1016.7 |
| 20260502221355 | 70 | 311 | 1.0 | 9.0 | 0.00 | 0.00 | 0.00 | 38 | 1016.7 |
| 20260502220854 | 70 | 29 | 3.0 | 9.0 | 0.00 | 0.00 | 0.00 | 35 | 1016.7 |
| 20260502220354 | 70 | 292 | 2.0 | 9.0 | 0.00 | 0.00 | 0.00 | 36 | 1016.7 |
| 20260502215924 | 70 | 271 | 2.0 | 9.0 | 0.00 | 0.00 | 0.00 | 35 | 1016.7 |
| 20260502215423 | 71 | 36 | 1.0 | 11.0 | 0.00 | 0.00 | 0.00 | 35 | 1016.6 |
| 20260502214923 | 70 | 287 | 0.0 | 11.0 | 0.00 | 0.00 | 0.00 | 37 | 1016.6 |
| 20260502214422 | 70 | 280 | 2.0 | 15.0 | 0.00 | 0.00 | 0.00 | 37 | 1016.7 |
| 20260502213922 | 68 | 321 | 1.0 | 15.0 | 0.00 | 0.00 | 0.00 | 38 | 1016.6 |
| 20260502213351 | 68 | 269 | 7.0 | 11.0 | 0.00 | 0.00 | 0.00 | 39 | 1016.6 |
| 20260502212921 | 69 | 46 | 5.0 | 11.0 | 0.00 | 0.00 | 0.00 | 36 | 1016.6 |
| 20260502212421 | 69 | 346 | 1.0 | 8.0 | 0.00 | 0.00 | 0.00 | 37 | 1016.6 |
| 20260502211921 | 69 | 283 | 8.0 | 8.0 | 0.00 | 0.00 | 0.00 | 39 | 1016.6 |
| 20260502211420 | 70 | 49 | 2.0 | 8.0 | 0.00 | 0.00 | 0.00 | 37 | 1016.6 |
| 20260502210419 | 69 | 302 | 1.0 | 7.0 | 0.00 | 0.00 | 0.00 | 37 | 1016.6 |
| 20260502205919 | 69 | 355 | 3.0 | 8.0 | 0.00 | 0.00 | 0.00 | 37 | 1016.6 |
| 20260502205418 | 70 | 342 | 2.0 | 8.0 | 0.00 | 0.00 | 0.00 | 37 | 1016.6 |
| 20260502204417 | 72 | 349 | 2.0 | 10.0 | 0.00 | 0.00 | 0.00 | 32 | 1016.7 |
| 20260502203917 | 72 | 305 | 0.0 | 10.0 | 0.00 | 0.00 | 0.00 | 35 | 1016.7 |
| 20260502203416 | 71 | 312 | 1.0 | 9.0 | 0.00 | 0.00 | 0.00 | 34 | 1016.7 |
| 20260502202916 | 69 | 275 | 4.0 | 9.0 | 0.00 | 0.00 | 0.00 | 39 | 1016.8 |
| 20260502202415 | 68 | 288 | 2.0 | 10.0 | 0.00 | 0.00 | 0.00 | 36 | 1016.8 |
| 20260502201915 | 69 | 311 | 3.0 | 10.0 | 0.00 | 0.00 | 0.00 | 36 | 1016.9 |
| 20260502201415 | 70 | 355 | 3.0 | 10.0 | 0.00 | 0.00 | 0.00 | 36 | 1016.9 |
| 20260502200914 | 69 | 5 | 2.0 | 12.0 | 0.00 | 0.00 | 0.00 | 40 | 1016.9 |
| 20260502200414 | 70 | 288 | 3.0 | 13.0 | 0.00 | 0.00 | 0.00 | 37 | 1017.0 |
| 20260502195913 | 71 | 263 | 1.0 | 14.0 | 0.00 | 0.00 | 0.00 | 36 | 1017.0 |
| 20260502195413 | 73 | 303 | 0.0 | 14.0 | 0.00 | 0.00 | 0.00 | 34 | 1016.9 |
| 20260502194912 | 73 | 300 | 8.0 | 13.0 | 0.00 | 0.00 | 0.00 | 35 | 1017.0 |
| 20260502194412 | 73 | 267 | 8.0 | 12.0 | 0.00 | 0.00 | 0.00 | 37 | 1017.1 |
| 20260502193911 | 72 | 339 | 11.0 | 13.0 | 0.00 | 0.00 | 0.00 | 35 | 1017.1 |
| 20260502193411 | 70 | 355 | 4.0 | 13.0 | 0.00 | 0.00 | 0.00 | 35 | 1017.2 |
| 20260502192911 | 73 | 304 | 10.0 | 13.0 | 0.00 | 0.00 | 0.00 | 35 | 1017.3 |
| 20260502192410 | 74 | 240 | 5.0 | 11.0 | 0.00 | 0.00 | 0.00 | 36 | 1017.2 |
| 20260502191410 | 70 | 360 | 4.0 | 13.0 | 0.00 | 0.00 | 0.00 | 36 | 1017.1 |
| 20260502190909 | 70 | 302 | 2.0 | 10.0 | 0.00 | 0.00 | 0.00 | 38 | 1017.1 |
| 20260502190409 | 70 | 254 | 3.0 | 9.0 | 0.00 | 0.00 | 0.00 | 35 | 1017.2 |
| 20260502185909 | 70 | 295 | 1.0 | 11.0 | 0.00 | 0.00 | 0.00 | 37 | 1017.3 |
| 20260502185408 | 70 | 272 | 2.0 | 11.0 | 0.00 | 0.00 | 0.00 | 36 | 1017.5 |
| 20260502184907 | 71 | 248 | 1.0 | 13.0 | 0.00 | 0.00 | 0.00 | 41 | 1017.4 |
| 20260502184407 | 69 | 298 | 1.0 | 13.0 | 0.00 | 0.00 | 0.00 | 39 | 1017.5 |
| 20260502183906 | 69 | 282 | 6.0 | 10.0 | 0.00 | 0.00 | 0.00 | 38 | 1017.5 |
| 20260502182906 | 70 | 300 | 2.0 | 11.0 | 0.00 | 0.00 | 0.00 | 40 | 1017.6 |
| 20260502182406 | 72 | 338 | 0.0 | 11.0 | 0.00 | 0.00 | 0.00 | 40 | 1017.6 |
| 20260502181905 | 72 | 154 | 3.0 | 11.0 | 0.00 | 0.00 | 0.00 | 40 | 1017.9 |
| 20260502181405 | 72 | 348 | 2.0 | 11.0 | 0.00 | 0.00 | 0.00 | 40 | 1017.9 |
| 20260502180904 | 72 | 298 | 1.0 | 11.0 | 0.00 | 0.00 | 0.00 | 41 | 1017.9 |
| 20260502180404 | 72 | 275 | 3.0 | 11.0 | 0.00 | 0.00 | 0.00 | 38 | 1018.0 |
| 20260502170403 | 72 | 277 | 7.0 | 12.0 | 0.00 | 0.00 | 0.00 | 42 | 1018.5 |
| 20260502163902 | 69 | 355 | 2.0 | 10.0 | 0.00 | 0.00 | 0.00 | 41 | 1018.6 |
| 20260502162901 | 69 | 317 | 3.0 | 8.0 | 0.00 | 0.00 | 0.00 | 41 | 1018.7 |
| 20260502161400 | 70 | 293 | 4.0 | 7.0 | 0.00 | 0.00 | 0.00 | 41 | 1018.9 |
| 20260502160359 | 69 | 334 | 3.0 | 9.0 | 0.00 | 0.00 | 0.00 | 43 | 1018.9 |
| 20260502151857 | 67 | 327 | 2.0 | 9.0 | 0.00 | 0.00 | 0.00 | 43 | 1018.9 |
| 20260502151357 | 67 | 215 | 2.0 | 9.0 | 0.00 | 0.00 | 0.00 | 43 | 1018.9 |
| 20260502150857 | 67 | 231 | 7.0 | 9.0 | 0.00 | 0.00 | 0.00 | 43 | 1018.9 |
| 20260502150357 | 66 | 303 | 1.0 | 3.0 | 0.00 | 0.00 | 0.00 | 45 | 1018.8 |
| 20260502130419 | 54 | 27 | 0.0 | 0.0 | 0.00 | 0.00 | 0.00 | 82 | 1018.3 |
| 20260502123416 | 50 | 27 | 0.0 | 0.0 | 0.00 | 0.00 | 0.00 | 87 | 1018.1 |
| 20260502122915 | 49 | 27 | 0.0 | 0.0 | 0.00 | 0.00 | 0.00 | 89 | 1017.9 |
| 20260502122414 | 48 | 137 | 0.0 | 1.0 | 0.00 | 0.00 | 0.00 | 90 | 1017.8 |
| 20260502121914 | 48 | 137 | 0.0 | 1.0 | 0.00 | 0.00 | 0.00 | 91 | 1017.7 |
| 20260502120413 | 45 | 214 | 0.0 | 0.0 | 0.00 | 0.00 | 0.00 | 93 | 1017.5 |
| 20260502115912 | 45 | 214 | 0.0 | 0.0 | 0.00 | 0.00 | 0.00 | 93 | 1017.5 |
| 20260502115412 | 44 | 214 | 0.0 | 0.0 | 0.00 | 0.00 | 0.00 | 92 | 1017.4 |
| 20260502114912 | 44 | 214 | 0.0 | 0.0 | 0.00 | 0.00 | 0.00 | 92 | 1017.3 |
| 20260502114411 | 44 | 214 | 0.0 | 0.0 | 0.00 | 0.00 | 0.00 | 92 | 1017.3 |
| 20260502113410 | 44 | 214 | 0.0 | 0.0 | 0.00 | 0.00 | 0.00 | 92 | 1017.1 |
| 20260502112909 | 44 | 214 | 0.0 | 0.0 | 0.00 | 0.00 | 0.00 | 92 | 1017.2 |
| 20260502112409 | 43 | 214 | 0.0 | 0.0 | 0.00 | 0.00 | 0.00 | 92 | 1017.2 |
| 20260502111909 | 43 | 214 | 0.0 | 1.0 | 0.00 | 0.00 | 0.00 | 92 | 1017.1 |
| 20260502111408 | 43 | 217 | 0.0 | 1.0 | 0.00 | 0.00 | 0.00 | 92 | 1017.2 |
| 20260502110908 | 44 | 58 | 0.0 | 0.0 | 0.00 | 0.00 | 0.00 | 92 | 1017.0 |
| 20260502110407 | 44 | 58 | 0.0 | 0.0 | 0.00 | 0.00 | 0.00 | 92 | 1017.1 |
| 20260502105406 | 44 | 58 | 0.0 | 0.0 | 0.00 | 0.00 | 0.00 | 91 | 1017.1 |
| 20260502104905 | 44 | 58 | 0.0 | 0.0 | 0.00 | 0.00 | 0.00 | 91 | 1017.0 |
| 20260502104405 | 44 | 58 | 0.0 | 0.0 | 0.00 | 0.00 | 0.00 | 91 | 1017.0 |
| 20260502103404 | 44 | 58 | 0.0 | 0.0 | 0.00 | 0.00 | 0.00 | 91 | 1016.9 |
| 20260502102903 | 44 | 58 | 0.0 | 0.0 | 0.00 | 0.00 | 0.00 | 91 | 1016.8 |
| 20260502102404 | 44 | 58 | 0.0 | 0.0 | 0.00 | 0.00 | 0.00 | 91 | 1016.8 |
| 20260502101402 | 44 | 58 | 0.0 | 0.0 | 0.00 | 0.00 | 0.00 | 90 | 1016.7 |
| 20260502100902 | 44 | 58 | 0.0 | 0.0 | 0.00 | 0.00 | 0.00 | 90 | 1016.8 |
| 20260502100401 | 44 | 58 | 0.0 | 0.0 | 0.00 | 0.00 | 0.00 | 90 | 1016.8 |
| 20260502091356 | 45 | 58 | 0.0 | 0.0 | 0.00 | 0.00 | 0.00 | 86 | 1016.6 |
| 20260502090856 | 46 | 58 | 0.0 | 0.0 | 0.00 | 0.00 | 0.00 | 85 | 1016.6 |
| 20260502090355 | 46 | 58 | 0.0 | 0.0 | 0.00 | 0.00 | 0.00 | 85 | 1016.6 |
| 20260502071415 | 49 | 58 | 0.0 | 0.0 | 0.00 | 0.00 | 0.00 | 77 | 1016.7 |
| 20260502070914 | 50 | 58 | 0.0 | 0.0 | 0.00 | 0.00 | 0.00 | 78 | 1016.7 |
| 20260502070413 | 50 | 58 | 0.0 | 0.0 | 0.00 | 0.00 | 0.00 | 77 | 1016.7 |
| 20260502065913 | 50 | 58 | 0.0 | 0.0 | 0.00 | 0.00 | 0.00 | 75 | 1016.8 |
| 20260502065412 | 50 | 58 | 0.0 | 0.0 | 0.00 | 0.00 | 0.00 | 73 | 1016.8 |
| 20260502064912 | 51 | 58 | 0.0 | 0.0 | 0.00 | 0.00 | 0.00 | 73 | 1016.8 |
| 20260502064411 | 51 | 58 | 0.0 | 0.0 | 0.00 | 0.00 | 0.00 | 73 | 1016.9 |
| 20260502063911 | 51 | 58 | 0.0 | 0.0 | 0.00 | 0.00 | 0.00 | 74 | 1017.0 |
| 20260502063411 | 51 | 58 | 0.0 | 0.0 | 0.00 | 0.00 | 0.00 | 73 | 1017.1 |
| 20260502062910 | 52 | 58 | 0.0 | 0.0 | 0.00 | 0.00 | 0.00 | 74 | 1017.3 |
| 20260502062410 | 52 | 58 | 0.0 | 0.0 | 0.00 | 0.00 | 0.00 | 73 | 1017.3 |
| 20260502061909 | 52 | 58 | 0.0 | 0.0 | 0.00 | 0.00 | 0.00 | 72 | 1017.5 |
| 20260502061409 | 52 | 58 | 0.0 | 0.0 | 0.00 | 0.00 | 0.00 | 70 | 1017.4 |
| 20260502060908 | 52 | 58 | 0.0 | 0.0 | 0.00 | 0.00 | 0.00 | 70 | 1017.3 |
| 20260502060408 | 52 | 58 | 0.0 | 0.0 | 0.00 | 0.00 | 0.00 | 72 | 1017.3 |
| 20260502055907 | 52 | 58 | 0.0 | 0.0 | 0.00 | 0.00 | 0.00 | 72 | 1017.5 |
| 20260502054906 | 53 | 58 | 0.0 | 0.0 | 0.00 | 0.00 | 0.00 | 72 | 1017.3 |
| 20260502054406 | 53 | 58 | 0.0 | 0.0 | 0.00 | 0.00 | 0.00 | 69 | 1017.3 |
| 20260502052904 | 53 | 58 | 0.0 | 0.0 | 0.00 | 0.00 | 0.00 | 70 | 1017.1 |
| 20260502052404 | 53 | 58 | 0.0 | 1.0 | 0.00 | 0.00 | 0.00 | 70 | 1017.1 |
| 20260502051903 | 53 | 58 | 0.0 | 1.0 | 0.00 | 0.00 | 0.00 | 70 | 1017.0 |
| 20260502051403 | 52 | 58 | 0.0 | 0.0 | 0.00 | 0.00 | 0.00 | 70 | 1017.1 |
| 20260502050402 | 52 | 58 | 0.0 | 0.0 | 0.00 | 0.00 | 0.00 | 70 | 1017.1 |
| 20260502045901 | 53 | 58 | 0.0 | 0.0 | 0.00 | 0.00 | 0.00 | 69 | 1017.1 |
| 20260502045401 | 53 | 58 | 0.0 | 0.0 | 0.00 | 0.00 | 0.00 | 67 | 1017.2 |
| 20260502044900 | 53 | 58 | 0.0 | 0.0 | 0.00 | 0.00 | 0.00 | 69 | 1017.1 |
| 20260502044400 | 53 | 58 | 0.0 | 0.0 | 0.00 | 0.00 | 0.00 | 73 | 1017.0 |
| 20260502043359 | 53 | 58 | 0.0 | 0.0 | 0.00 | 0.00 | 0.00 | 70 | 1017.0 |
| 20260502042859 | 53 | 58 | 0.0 | 0.0 | 0.00 | 0.00 | 0.00 | 67 | 1016.9 |
| 20260502042358 | 53 | 58 | 0.0 | 0.0 | 0.00 | 0.00 | 0.00 | 68 | 1016.8 |
| 20260502041858 | 53 | 58 | 0.0 | 0.0 | 0.00 | 0.00 | 0.00 | 69 | 1016.8 |
| 20260502041357 | 54 | 58 | 0.0 | 0.0 | 0.00 | 0.00 | 0.00 | 69 | 1016.8 |
| 20260502040857 | 54 | 58 | 0.0 | 0.0 | 0.00 | 0.00 | 0.00 | 68 | 1016.6 |
| 20260502035856 | 54 | 58 | 0.0 | 0.0 | 0.00 | 0.00 | 0.00 | 66 | 1016.5 |
| 20260502035355 | 54 | 58 | 0.0 | 0.0 | 0.00 | 0.00 | 0.00 | 66 | 1016.4 |
| 20260502034855 | 55 | 58 | 0.0 | 0.0 | 0.00 | 0.00 | 0.00 | 64 | 1016.5 |
| 20260502034354 | 55 | 58 | 0.0 | 0.0 | 0.00 | 0.00 | 0.00 | 60 | 1016.5 |
| 20260502033924 | 55 | 58 | 0.0 | 1.0 | 0.00 | 0.00 | 0.00 | 64 | 1016.5 |
| 20260502033423 | 55 | 58 | 0.0 | 2.0 | 0.00 | 0.00 | 0.00 | 63 | 1016.5 |
| 20260502032923 | 54 | 58 | 0.0 | 2.0 | 0.00 | 0.00 | 0.00 | 66 | 1016.4 |
| 20260502032422 | 54 | 59 | 0.0 | 0.0 | 0.00 | 0.00 | 0.00 | 67 | 1016.4 |
| 20260502031922 | 54 | 14 | 0.0 | 0.0 | 0.00 | 0.00 | 0.00 | 69 | 1016.5 |
| 20260502030921 | 55 | 14 | 0.0 | 0.0 | 0.00 | 0.00 | 0.00 | 69 | 1016.8 |
| 20260502030421 | 55 | 14 | 0.0 | 0.0 | 0.00 | 0.00 | 0.00 | 68 | 1016.9 |
| 20260502025920 | 55 | 14 | 0.0 | 0.0 | 0.00 | 0.00 | 0.00 | 67 | 1016.9 |
| 20260502025420 | 55 | 14 | 0.0 | 0.0 | 0.00 | 0.00 | 0.00 | 68 | 1016.8 |
| 20260502024919 | 55 | 14 | 0.0 | 0.0 | 0.00 | 0.00 | 0.00 | 67 | 1017.0 |
| 20260502024419 | 55 | 14 | 0.0 | 0.0 | 0.00 | 0.00 | 0.00 | 66 | 1017.0 |
| 20260502023918 | 55 | 14 | 0.0 | 0.0 | 0.00 | 0.00 | 0.00 | 65 | 1017.2 |
| 20260502023418 | 55 | 14 | 0.0 | 0.0 | 0.00 | 0.00 | 0.00 | 65 | 1017.2 |
| 20260502022917 | 55 | 14 | 0.0 | 0.0 | 0.00 | 0.00 | 0.00 | 64 | 1017.4 |
| 20260502022417 | 56 | 14 | 0.0 | 0.0 | 0.00 | 0.00 | 0.00 | 63 | 1017.4 |
| 20260502021917 | 56 | 14 | 0.0 | 0.0 | 0.00 | 0.00 | 0.00 | 64 | 1017.6 |
| 20260502021416 | 56 | 14 | 0.0 | 0.0 | 0.00 | 0.00 | 0.00 | 64 | 1017.5 |
| 20260502020915 | 56 | 14 | 0.0 | 0.0 | 0.00 | 0.00 | 0.00 | 63 | 1017.5 |
| 20260502020415 | 56 | 14 | 0.0 | 0.0 | 0.00 | 0.00 | 0.00 | 63 | 1017.3 |
| 20260502015914 | 56 | 14 | 0.0 | 0.0 | 0.00 | 0.00 | 0.00 | 61 | 1017.3 |
| 20260502015414 | 56 | 14 | 0.0 | 0.0 | 0.00 | 0.00 | 0.00 | 60 | 1017.1 |
| 20260502014913 | 57 | 14 | 0.0 | 0.0 | 0.00 | 0.00 | 0.00 | 61 | 1017.2 |
| 20260502014413 | 57 | 14 | 0.0 | 0.0 | 0.00 | 0.00 | 0.00 | 59 | 1017.3 |
| 20260502013412 | 57 | 14 | 0.0 | 0.0 | 0.00 | 0.00 | 0.00 | 60 | 1017.3 |
| 20260502012411 | 57 | 14 | 0.0 | 0.0 | 0.00 | 0.00 | 0.00 | 58 | 1016.8 |
| 20260502011911 | 57 | 14 | 0.0 | 0.0 | 0.00 | 0.00 | 0.00 | 59 | 1016.8 |
| 20260502011410 | 58 | 14 | 0.0 | 0.0 | 0.00 | 0.00 | 0.00 | 59 | 1016.7 |
| 20260502005408 | 58 | 14 | 0.0 | 0.0 | 0.00 | 0.00 | 0.00 | 58 | 1016.1 |
| 20260502004907 | 58 | 14 | 0.0 | 0.0 | 0.00 | 0.00 | 0.00 | 56 | 1016.2 |
| 20260502004407 | 59 | 14 | 0.0 | 0.0 | 0.00 | 0.00 | 0.00 | 56 | 1016.2 |
| 20260502003906 | 59 | 14 | 0.0 | 0.0 | 0.00 | 0.00 | 0.00 | 55 | 1016.3 |
| 20260502003406 | 60 | 14 | 0.0 | 0.0 | 0.00 | 0.00 | 0.00 | 52 | 1016.2 |
| 20260502002905 | 60 | 14 | 0.0 | 0.0 | 0.00 | 0.00 | 0.00 | 52 | 1016.1 |
| 20260502002405 | 61 | 14 | 0.0 | 0.0 | 0.00 | 0.00 | 0.00 | 53 | 1015.9 |